Temperature
27 28 29 29 29 29 29 29 29 29 30 30 29 29 28 26 27 26 26 26 25 25 23 23 22 22 22 21 21 20 20 20 20 19 19 19 19 18 18 17 17 16 16 16
28 28 29 28 28 28 29 29 29 29 29 29 29 29 29 27 27 27 27 26 25 25 23 23 22 22 22 21 21 20 20 20 20 19 19 18 18 18 18 17 16 16 16 16
28 28 29 29 29 29 29 29 29 28 29 29 29 29 29 28 27 26 26 26 26 25 24 24 23 23 22 21 21 21 20 20 20 20 19 19 18 18 18 17 17 16 16 16
29 29 29 28 28 28 28 29 28 28 28 28 28 27 29 30 28 28 27 26 25 25 24 24 23 23 22 22 21 20 21 21 20 20 19 19 19 19 18 17 17 16 15 15
28 28 28 28 28 28 28 28 28 27 27 27 28 27 28 29 28 28 28 26 25 24 23 23 23 23 22 21 21 20 20 20 20 20 20 19 19 18 18 17 16 16 15 15
28 29 29 28 29 28 28 27 27 27 28 26 26 26 27 27 26 26 26 25 24 23 22 22 21 21 20 20 20 20 20 20 20 20 20 20 19 18 17 17 16 16 16 15
28 28 29 29 28 28 28 27 26 26 26 26 26 26 25 23 22 22 22 20 19 18 17 17 18 18 18 19 19 19 19 20 20 19 19 19 19 18 17 16 16 16 16 15
27 27 28 28 28 27 27 26 25 25 25 26 27 26 24 21 20 19 18 17 16 15 15 14 14 15 15 15 16 17 17 19 19 19 19 19 19 17 17 17 16 16 16 15
27 27 28 28 28 27 27 27 28 26 26 25 26 26 23 20 19 18 17 16 15 14 14 14 13 13 13 13 13 14 14 15 16 17 18 18 18 17 17 16 16 16 15 15
28 26 28 28 28 27 26 26 26 26 24 24 25 25 24 19 18 17 16 15 14 14 14 14 13 13 13 13 13 13 12 13 14 15 15 16 16 16 16 16 15 15 15 15
27 26 27 28 27 26 26 26 26 26 25 24 24 24 17 16 16 16 15 15 14 14 14 13 13 12 12 12 12 12 12 12 12 13 13 14 14 14 15 15 15 15 15 14
27 27 26 27 27 26 26 26 25 24 24 24 24 23 16 15 15 14 14 14 14 13 13 13 13 12 12 11 11 11 11 11 11 11 12 12 13 13 14 14 14 14 14 14
26 25 25 26 26 26 26 26 25 25 24 24 23 21 16 14 14 13 13 12 12 12 12 12 12 11 11 10 10 10 10 10 10 10 10 11 11 12 12 13 14 14 14 14
24 25 25 25 25 26 25 26 25 24 24 24 23 21 15 14 13 12 11 10 10 10 10 10 10 10 10 9 9 9 9 9 9 9 9 9 10 10 11 12 13 13 13 13
25 25 26 26 26 26 25 23 23 23 22 22 21 19 15 14 13 11 10 10 9 9 9 9 9 9 9 9 9 8 8 8 7 8 8 8 9 9 10 11 11 12 12 12
24 24 24 25 26 25 22 20 20 19 18 18 17 15 14 13 11 10 10 10 10 10 10 11 11 10 10 10 9 9 9 9 8 8 8 8 8 9 9 10 10 11 11 12
24 23 23 24 25 24 21 17 17 17 16 16 14 13 13 11 11 12 13 13 13 12 12 12 11 11 11 11 11 10 10 10 9 9 9 9 9 9 9 9 10 10 11 11
22 22 23 24 23 22 15 16 16 15 15 14 13 13 13 13 14 14 14 14 13 12 12 11 11 11 11 10 10 10 10 10 10 10 10 10 9 9 9 9 9 9 10 10
22 22 23 23 23 20 16 16 16 16 15 14 14 15 15 14 14 15 14 13 12 11 11 10 10 10 10 10 9 9 9 9 9 10 10 10 9 9 9 9 9 9 9 9
23 22 23 22 21 20 16 16 16 17 15 14 15 15 14 13 14 14 12 11 11 10 10 10 9 9 9 9 9 8 8 8 9 9 9 9 9 9 9 9 9 9 9 9
21 21 20 20 20 18 16 16 17 16 16 15 14 13 13 13 12 11 11 10 10 10 9 9 9 9 8 8 8 7 7 7 7 8 8 8 8 8 9 8 8 8 9 9
20 20 19 19 18 17 15 16 15 15 14 13 13 12 12 11 11 10 10 10 9 9 9 9 8 8 7 7 6 6 6 6 6 6 6 6 7 8 8 9 9 8 8 8
19 18 19 18 18 16 15 14 14 13 13 12 12 11 11 10 10 10 10 9 9 9 9 8 8 7 6 6 5 5 5 5 5 5 5 5 6 7 7 8 8 8 8 9
18 16 17 17 17 16 14 14 13 12 11 11 11 10 10 10 10 9 9 9 9 8 8 8 7 6 5 5 4 4 4 4 4 4 4 4 5 6 6 7 8 9 9 9
17 17 16 16 16 15 14 13 12 11 10 10 10 10 9 9 9 9 9 8 8 8 8 7 7 5 4 4 4 4 4 4 4 4 4 4 4 5 5 7 7 8 8 9
16 16 15 15 14 13 13 12 11 11 10 10 10 9 9 9 9 9 8 8 8 7 7 7 6 4 4 4 4 4 4 4 3 3 3 4 4 4 5 6 7 8 8 8
Wind_Speed
4 4 2 4 2 3 3 5 4 1 5 6 4 1 3 4 7 9 11 11 11 10 9 8 8 8 8 8 7 6 4 4 3 2 2 2 3 3 3 2 1 1 2 4
5 4 6 3 1 1 1 4 4 3 2 6 7 4 4 6 8 9 10 11 11 10 9 8 8 8 8 8 7 6 6 5 5 3 2 3 4 4 4 3 1 3 4 5
3 7 5 1 2 5 5 7 8 9 9 10 10 12 10 8 9 9 10 10 11 10 10 9 9 9 8 8 7 6 5 6 6 5 4 3 4 5 4 4 4 4 5 6
4 4 6 7 6 9 9 6 7 9 12 13 9 14 13 9 11 13 12 11 11 9 8 8 9 9 8 7 7 7 8 8 7 7 6 5 5 6 6 5 5 5 5 7
4 5 8 8 7 8 7 5 6 9 12 12 8 9 8 3 9 12 13 12 10 8 7 7 7 6 4 5 6 8 8 9 8 8 7 7 7 6 5 4 4 6 6 5
3 3 5 6 5 3 4 7 9 9 9 5 2 7 4 7 11 11 7 3 4 2 1 3 6 7 6 7 7 8 8 9 9 9 8 8 8 7 7 6 5 6 5 5
0 1 2 5 9 5 8 10 8 7 5 2 1 6 5 14 15 15 16 15 14 15 15 15 15 13 12 11 10 10 9 10 9 9 9 9 9 8 9 7 5 6 7 6
3 3 5 7 8 10 9 9 8 8 8 8 4 2 9 15 16 17 18 18 18 18 17 17 17 17 16 17 16 14 11 9 8 8 8 8 8 8 7 7 6 6 6 6
6 6 5 4 6 7 7 6 6 9 9 10 5 2 11 15 16 16 17 18 18 18 18 17 17 17 17 17 18 18 16 13 9 6 5 6 8 9 9 8 8 7 6 7
7 10 8 4 4 1 3 5 5 7 8 9 7 8 2 10 11 13 15 16 16 16 16 17 16 17 16 16 17 17 18 17 16 13 9 6 7 10 11 11 10 8 8 8
7 9 10 7 7 8 4 4 5 7 7 10 14 6 5 7 8 9 11 13 14 15 15 15 15 16 17 17 17 17 17 17 17 16 15 12 11 10 11 11 11 11 10 10
4 8 11 10 0 1 4 4 5 7 9 10 14 4 7 8 7 7 10 12 14 15 16 16 15 15 15 16 16 16 16 16 16 16 16 14 13 12 11 12 13 13 13 13
4 7 11 8 4 4 6 6 7 8 10 12 15 2 6 7 6 8 11 13 15 16 17 17 16 16 15 15 14 14 15 16 17 17 17 16 16 15 14 13 14 14 15 15
5 10 12 13 11 10 10 9 8 11 13 14 15 2 5 6 9 11 12 13 14 15 14 15 14 13 12 12 12 13 13 14 15 15 16 16 16 17 16 15 15 15 16 17
4 9 11 12 12 10 8 8 9 9 10 12 12 5 6 10 12 13 14 16 17 17 15 14 13 12 11 11 11 11 11 12 12 12 13 14 14 16 17 16 16 15 15 17
3 7 9 12 8 5 3 9 7 6 7 7 5 3 8 13 11 13 16 18 19 19 18 18 18 18 17 16 16 16 15 15 14 14 14 13 14 15 15 15 16 15 15 15
4 5 7 10 6 9 1 10 10 6 5 6 4 7 13 15 15 17 20 22 21 20 21 22 22 22 21 21 20 20 19 18 16 16 16 15 15 15 15 16 15 15 14 14
6 6 6 10 11 8 7 6 8 7 4 1 3 10 14 18 21 22 23 21 20 22 24 24 24 24 23 23 23 23 23 21 20 19 18 18 17 17 17 16 15 14 13 12
7 6 7 7 12 3 5 7 13 13 11 7 9 19 23 25 27 24 19 21 24 26 25 25 25 26 25 25 24 24 23 22 22 21 21 20 19 19 18 17 16 15 13 13
7 6 7 7 9 5 6 11 14 11 9 2 19 25 27 28 25 22 24 25 26 26 25 25 26 26 25 24 23 23 24 23 23 23 22 22 20 19 19 18 17 15 14 14
9 6 8 9 8 4 7 13 15 12 13 21 25 26 27 25 24 26 28 28 28 27 26 26 25 23 22 21 22 24 24 23 23 23 23 23 21 20 19 18 16 15 15 15
7 7 7 7 7 2 10 13 11 15 22 24 27 26 25 26 28 28 29 29 28 27 27 27 25 24 22 21 21 24 24 23 21 21 22 23 22 21 19 17 16 15 15 15
4 5 6 5 5 4 9 13 15 19 24 25 23 25 26 27 29 30 29 28 27 27 26 26 26 26 25 23 22 24 24 22 21 20 21 22 23 20 19 17 16 15 14 14
1 2 5 6 6 10 16 16 19 21 23 24 24 26 27 29 30 30 29 28 28 27 26 26 26 26 25 23 22 22 23 22 21 21 20 18 18 19 18 15 14 14 13 12
1 3 5 9 10 15 15 20 22 22 23 24 24 26 27 28 29 29 28 28 27 27 27 26 24 24 25 24 23 22 22 20 21 21 20 17 16 17 16 14 12 12 11 8
1 3 6 8 13 17 22 22 22 23 23 24 27 28 27 27 29 30 28 27 27 28 27 27 25 24 25 25 24 22 21 20 19 18 17 15 13 12 13 13 12 13 12 6
Wind_Direction
248 261 16 42 6 342 270 253 248 308 1 328 342 330 173 187 191 189 190 185 183 174 157 150 142 140 139 138 141 150 162 160 180 187 264 283 296 306 307 304 327 312 336 343
214 53 46 53 90 202 246 257 258 250 349 319 311 282 201 197 207 206 203 200 195 180 165 160 160 157 152 148 146 151 161 163 182 183 235 271 304 300 316 303 271 295 319 319
11 41 24 321 283 302 285 288 297 299 302 271 276 266 220 213 223 225 224 217 209 194 179 173 176 174 172 170 171 170 175 186 202 204 226 227 240 259 266 269 269 308 318 316
301 347 331 305 311 312 298 329 305 299 297 293 288 285 269 242 240 236 230 222 214 194 183 182 190 193 192 194 193 193 201 213 215 219 242 268 292 306 314 300 305 315 303 310
304 315 308 306 333 321 327 339 300 297 296 289 272 276 289 274 276 263 239 228 223 195 195 210 222 226 233 238 234 223 219 226 229 231 233 246 264 279 278 277 283 291 299 299
309 295 303 326 324 308 306 276 263 259 268 263 10 302 307 22 3 354 353 245 235 195 232 299 310 312 308 297 281 263 249 245 240 236 238 239 254 257 259 254 281 290 303 301
114 111 28 326 313 285 288 294 286 267 258 316 48 289 42 43 32 35 38 41 41 38 28 20 11 2 351 336 318 298 280 269 259 246 242 237 238 237 235 247 261 287 304 309
295 331 11 349 336 319 312 294 281 298 304 313 291 265 82 61 57 55 57 54 50 47 44 38 30 26 21 13 3 350 329 305 282 257 241 232 229 234 232 227 261 275 291 300
314 319 334 338 326 315 307 293 319 289 282 284 278 194 119 61 60 55 53 49 45 41 39 35 28 24 20 17 14 9 2 354 342 310 263 238 230 237 235 223 231 253 263 275
294 298 312 332 298 144 317 314 286 285 296 293 283 261 315 36 46 47 43 38 33 29 26 23 17 12 9 7 7 6 5 2 1 356 338 304 264 243 237 235 238 248 256 261
282 288 300 309 333 334 291 256 284 285 291 293 292 302 71 64 51 35 30 23 19 15 12 9 6 2 359 358 357 356 355 353 354 354 350 342 322 294 268 255 252 249 249 248
280 288 296 301 348 226 274 302 297 299 299 286 285 293 100 92 68 30 7 360 359 358 356 355 355 352 350 350 349 348 346 344 341 339 337 337 333 325 311 292 277 263 254 248
288 275 286 286 192 207 264 275 283 292 287 282 289 278 107 68 40 12 354 347 343 341 340 339 340 340 339 339 338 337 336 337 335 331 327 326 326 327 326 320 304 281 263 252
270 262 274 291 305 310 296 293 289 281 288 293 299 300 111 27 355 343 335 327 319 314 316 318 320 322 323 321 320 321 323 324 322 322 319 318 319 320 321 320 314 298 276 259
260 264 272 282 290 290 302 334 333 314 311 301 321 8 34 358 338 326 315 309 303 300 298 295 291 288 284 280 278 277 279 281 284 290 295 300 306 309 312 313 310 305 291 270
299 292 294 284 288 288 69 20 3 2 348 339 333 11 4 333 314 297 293 292 294 296 297 298 296 294 289 283 279 275 269 262 256 265 273 275 282 289 292 295 297 299 298 284
321 305 295 298 313 264 167 23 7 4 1 350 349 336 321 306 297 298 302 301 299 302 306 308 308 307 306 302 298 294 288 282 277 275 278 275 273 278 281 285 292 299 302 298
357 329 293 299 300 292 83 45 7 331 272 241 316 308 301 302 309 308 301 306 314 314 312 310 308 306 304 303 301 300 297 290 284 281 282 279 277 279 281 281 285 292 298 298
21 338 311 315 309 107 108 20 347 319 287 237 300 317 319 319 312 306 319 327 317 311 308 307 305 303 303 302 301 299 296 291 284 281 281 279 278 278 276 275 278 283 289 292
8 350 333 333 316 326 50 359 335 308 281 283 321 320 320 320 314 315 323 316 311 310 308 307 306 304 302 301 301 299 297 294 290 289 289 284 277 275 272 270 273 275 280 282
353 354 356 335 320 55 13 342 330 313 322 325 318 317 317 315 310 309 311 311 310 308 307 307 305 303 303 303 300 295 292 291 291 290 290 286 279 274 267 264 264 266 269 275
345 342 352 333 323 343 1 341 335 314 314 316 316 315 314 312 309 309 310 309 309 308 307 307 306 305 304 301 297 292 290 291 291 289 289 285 279 273 268 264 259 257 261 265
11 2 331 326 317 325 328 318 315 319 317 316 314 314 313 311 310 312 311 310 309 307 306 307 307 306 305 301 296 290 289 288 284 281 283 282 276 269 265 264 261 254 248 253
128 339 307 297 291 304 313 313 320 322 318 315 313 311 311 310 311 312 311 310 309 307 306 306 307 306 304 300 293 286 286 284 280 277 275 273 272 267 260 255 252 250 248 250
21 308 302 292 307 311 309 320 323 320 317 314 312 311 311 311 311 311 311 310 309 308 306 306 306 304 301 298 292 288 287 284 278 276 272 264 258 261 261 254 248 254 254 256
274 320 315 315 324 314 314 321 319 317 317 317 316 314 313 312 311 312 311 310 308 307 306 307 308 305 300 297 293 292 290 285 278 272 266 261 253 246 249 252 247 227 231 185
Height
1509 1504 1499 1498 1497 1497 1496 1496 1495 1494 1492 1489 1489 1490 1491 1494 1494 1496 1497 1498 1499 1501 1503 1505 1507 1509 1511 1512 1514 1516 1518 1518 1518 1519 1519 1518 1517 1515 1514 1513 1511 1510 1509 1508
1505 1503 1501 1501 1500 1499 1497 1497 1495 1492 1492 1492 1490 1489 1489 1493 1492 1493 1494 1496 1497 1500 1502 1504 1506 1508 1510 1512 1514 1515 1516 1517 1517 1517 1517 1516 1515 1514 1513 1511 1509 1508 1507 1505
1502 1503 1502 1500 1499 1498 1496 1497 1496 1497 1492 1488 1491 1490 1487 1488 1491 1493 1493 1494 1496 1498 1501 1504 1506 1508 1510 1512 1513 1514 1515 1516 1516 1515 1516 1514 1513 1511 1511 1509 1508 1506 1503 1501
1502 1501 1501 1500 1498 1499 1498 1493 1496 1497 1498 1494 1491 1501 1483 1479 1485 1488 1490 1493 1495 1499 1502 1504 1506 1508 1510 1511 1512 1513 1513 1514 1514 1514 1514 1513 1512 1510 1508 1507 1505 1502 1499 1497
1503 1502 1502 1501 1499 1499 1498 1498 1497 1497 1497 1498 1492 1499 1486 1481 1486 1484 1486 1491 1495 1500 1503 1506 1507 1509 1510 1510 1511 1511 1511 1511 1511 1511 1510 1510 1509 1507 1505 1503 1501 1498 1496 1492
1503 1502 1501 1500 1498 1500 1498 1498 1495 1494 1492 1502 1500 1502 1494 1488 1493 1489 1487 1491 1496 1500 1503 1506 1508 1509 1509 1508 1508 1508 1507 1507 1507 1507 1506 1505 1505 1503 1501 1499 1497 1495 1493 1490
1504 1500 1500 1500 1498 1495 1496 1501 1505 1505 1502 1501 1495 1498 1500 1504 1503 1501 1500 1500 1502 1503 1505 1505 1507 1507 1507 1506 1505 1505 1503 1502 1502 1501 1501 1501 1500 1499 1497 1496 1494 1491 1490 1487
1510 1509 1500 1499 1501 1502 1497 1501 1511 1517 1510 1499 1491 1496 1505 1510 1511 1511 1510 1510 1510 1510 1510 1511 1510 1508 1506 1504 1502 1500 1498 1497 1496 1495 1495 1495 1495 1494 1493 1491 1489 1488 1485 1483
1507 1508 1498 1500 1500 1501 1499 1495 1492 1501 1499 1506 1493 1491 1501 1510 1513 1515 1515 1515 1515 1514 1514 1513 1512 1510 1508 1505 1502 1499 1497 1494 1492 1491 1490 1489 1489 1488 1487 1484 1483 1483 1481 1479
1503 1510 1497 1498 1497 1500 1501 1498 1499 1501 1511 1511 1498 1494 1495 1511 1516 1519 1520 1519 1518 1517 1516 1515 1513 1512 1509 1507 1503 1500 1497 1495 1491 1489 1487 1486 1485 1483 1481 1479 1477 1476 1475 1474
1503 1509 1501 1495 1499 1502 1500 1499 1499 1496 1500 1511 1509 1499 1516 1519 1521 1522 1523 1523 1521 1520 1518 1516 1514 1512 1509 1506 1502 1499 1496 1494 1491 1488 1485 1481 1480 1478 1476 1474 1473 1471 1470 1468
1504 1504 1505 1497 1495 1498 1497 1497 1499 1506 1506 1500 1502 1505 1518 1521 1524 1525 1525 1524 1522 1520 1518 1515 1513 1510 1507 1503 1499 1496 1494 1492 1490 1487 1484 1480 1476 1473 1469 1467 1467 1466 1465 1464
1505 1508 1511 1501 1500 1497 1496 1494 1495 1497 1500 1498 1501 1509 1519 1524 1526 1527 1526 1524 1521 1518 1515 1512 1509 1506 1502 1498 1495 1492 1489 1487 1485 1483 1480 1477 1473 1469 1463 1460 1459 1459 1459 1458
1508 1505 1509 1511 1502 1495 1495 1492 1492 1496 1497 1495 1493 1501 1518 1524 1526 1527 1526 1523 1518 1514 1510 1506 1502 1498 1495 1492 1489 1485 1481 1479 1477 1475 1473 1470 1466 1463 1458 1453 1452 1451 1451 1451
1506 1502 1498 1495 1491 1492 1496 1500 1500 1500 1500 1500 1499 1507 1521 1526 1528 1526 1523 1519 1514 1509 1504 1500 1496 1492 1488 1485 1482 1478 1474 1471 1468 1464 1462 1460 1457 1454 1451 1448 1447 1445 1443 1442
1506 1504 1501 1498 1491 1493 1505 1511 1509 1513 1514 1513 1517 1523 1527 1529 1528 1523 1518 1514 1509 1504 1500 1496 1492 1488 1483 1480 1476 1472 1468 1465 1462 1459 1455 1452 1451 1450 1447 1446 1443 1440 1437 1434
1504 1509 1506 1498 1492 1497 1509 1527 1523 1524 1525 1524 1526 1530 1528 1525 1521 1516 1510 1505 1501 1497 1493 1489 1486 1482 1478 1474 1470 1466 1462 1460 1457 1453 1451 1448 1447 1446 1443 1441 1438 1434 1431 1428
1512 1509 1506 1499 1499 1508 1535 1530 1530 1529 1528 1528 1529 1528 1524 1518 1512 1509 1504 1497 1494 1491 1488 1483 1479 1474 1470 1466 1462 1458 1454 1451 1448 1445 1443 1441 1440 1438 1436 1434 1431 1428 1425 1422
1514 1512 1505 1504 1503 1514 1530 1529 1530 1527 1524 1526 1526 1520 1516 1511 1505 1499 1496 1494 1491 1487 1482 1477 1472 1467 1462 1458 1454 1449 1445 1442 1439 1437 1434 1432 1430 1428 1427 1426 1424 1422 1420 1418
1512 1512 1507 1510 1514 1514 1531 1531 1529 1525 1519 1523 1520 1516 1511 1506 1497 1491 1492 1490 1485 1480 1475 1469 1464 1459 1454 1449 1445 1440 1436 1432 1429 1427 1425 1423 1421 1419 1418 1417 1417 1416 1414 1413
1517 1515 1518 1517 1515 1524 1533 1530 1526 1522 1520 1521 1517 1513 1509 1504 1499 1492 1486 1482 1477 1472 1466 1461 1455 1450 1445 1441 1436 1430 1426 1422 1419 1417 1414 1412 1411 1410 1409 1409 1409 1409 1408 1406
1525 1521 1523 1522 1523 1530 1532 1529 1529 1528 1524 1519 1514 1509 1504 1499 1493 1487 1481 1475 1469 1463 1457 1452 1445 1439 1435 1431 1425 1419 1415 1412 1409 1406 1403 1401 1400 1400 1399 1399 1400 1400 1400 1399
1530 1534 1529 1530 1530 1532 1532 1531 1529 1526 1521 1516 1511 1505 1500 1493 1486 1480 1473 1466 1460 1455 1448 1442 1435 1428 1423 1419 1414 1407 1402 1400 1397 1394 1391 1390 1389 1389 1390 1391 1391 1392 1392 1392
1534 1537 1533 1531 1527 1530 1530 1528 1526 1524 1519 1513 1507 1501 1494 1487 1480 1472 1465 1458 1452 1445 1439 1432 1425 1417 1410 1406 1401 1395 1390 1387 1384 1381 1378 1377 1377 1378 1380 1382 1383 1384 1384 1385
1535 1536 1534 1531 1529 1530 1526 1526 1523 1518 1514 1508 1501 1496 1489 1481 1473 1466 1457 1450 1443 1435 1429 1422 1414 1405 1398 1392 1387 1383 1379 1375 1371 1368 1366 1366 1366 1367 1370 1372 1374 1376 1378 1379
1536 1537 1535 1532 1532 1531 1525 1522 1518 1513 1507 1501 1494 1487 1481 1475 1466 1458 1450 1442 1434 1426 1418 1410 1402 1394 1386 1379 1374 1370 1366 1362 1357 1354 1353 1354 1355 1357 1360 1363 1366 1368 1371 1372